Hurlburt Field, FL

1:50 AM CDT on September 01, 2016 (GMT -0500)
Hurlburt

Weather History for KHRT - January, 2013

Change the Weather History Date:

Tuesday, January 15, 2013

  Actual Average Record
Temperature  
Mean Temperature 70 °F -  
Max Temperature 73 °F 59 °F 73 °F (2013)
Min Temperature 67 °F 40 °F 26 °F (2011)
Cooling Degree Days 5    
Growing Degree Days 20 (Base 50)    
Moisture  
Dew Point 70 °F    
Average Humidity 100    
Maximum Humidity 100    
Minimum Humidity 100    
Precipitation  
Precipitation 0.04 in - - ()
Sea Level Pressure  
Sea Level Pressure 30.01 in    
Wind  
Wind Speed 11 mph (SSE)    
Max Wind Speed 24 mph    
Max Gust Speed 38 mph    
Visibility 9 miles    
Events Rain    
Averages and records for this station are not official NWS values.
T = Trace of Precipitation, MM = Missing Value Source: NWS Daily Summary

Daily Weather History Graph

Daily Weather History Graph

Search for Another Location

Airport or City:

Trip Planner

Search our weather history database for the weather conditions in past years. The results will help you decide how hot, cold, wet, or windy it might be!

Date:

Astronomy

Jan. 15, 2013 Rise Set
Actual Time 6:44 AM CST 5:08 PM CST
Civil Twilight 6:18 AM CST 5:34 PM CST
Nautical Twilight 5:48 AM CST 6:04 PM CST
Astronomical Twilight 5:19 AM CST 6:33 PM CST
Moon 9:10 AM CST (1/15) 9:34 PM CST (1/15)
Length of Visible Light 11h 16m
Length of Day
10h 24m
Waxing Crescent, 19% of the Moon is Illuminated
Jan 15
Waxing Crescent
Jan 18
First Quarter
Jan 26
Full
Feb 3
Last Quarter
Feb 10
New

Hourly Weather History & Observations

Time (CST) Temp. Dew Point Humidity Pressure Visibility Wind Dir Wind Speed Gust Speed Precip Events Conditions
12:20 AM 68.0 °F 68.0 °F 100% 30.07 in 10.0 mi SE 11.5 mph - N/A   Overcast
12:40 AM 68.0 °F 68.0 °F 100% 30.06 in 10.0 mi SSE 11.5 mph - N/A   Mostly Cloudy
12:50 AM 68.0 °F 68.0 °F 100% 30.06 in 10.0 mi SSE 9.2 mph - N/A   Mostly Cloudy
12:55 AM 68.9 °F 68.9 °F 100% 30.06 in 10.0 mi SSE 10.4 mph - N/A   Mostly Cloudy
12:59 AM 68.0 °F 68.0 °F 100% 30.06 in 10.0 mi SSE 10.4 mph - N/A   Scattered Clouds
1:00 AM 68.0 °F 68.0 °F 100% 30.06 in 10.0 mi SSE 11.5 mph - N/A   Mostly Cloudy
1:02 AM 68.0 °F 68.0 °F 100% 30.06 in 10.0 mi SSE 9.2 mph - N/A   Scattered Clouds
1:06 AM 68.0 °F 68.0 °F 100% 30.05 in 10.0 mi SSE 9.2 mph - N/A   Mostly Cloudy
1:55 AM 68.0 °F 68.0 °F 100% 30.05 in 10.0 mi SE 9.2 mph - N/A   Mostly Cloudy
2:55 AM 68.0 °F 68.0 °F 100% 30.04 in 10.0 mi SE 10.4 mph - N/A   Mostly Cloudy
3:55 AM 69.8 °F 69.8 °F 100% 30.04 in 10.0 mi SSE 9.2 mph - N/A   Mostly Cloudy
4:55 AM 68.0 °F 68.0 °F 100% 30.04 in 10.0 mi SSE 8.1 mph - N/A   Mostly Cloudy
5:55 AM 68.4 °F 68.4 °F 100% 30.04 in 9.0 mi SSE 6.9 mph - N/A   Overcast
6:27 AM 68.0 °F 68.0 °F 100% 30.04 in 9.0 mi SSE 9.2 mph - N/A   Mostly Cloudy
6:32 AM 68.0 °F 68.0 °F 100% 30.04 in 9.0 mi SSE 10.4 mph - N/A   Mostly Cloudy
6:37 AM 68.0 °F 68.0 °F 100% 30.04 in 9.0 mi SSE 9.2 mph - N/A   Scattered Clouds
6:55 AM 68.2 °F 68.2 °F 100% 30.05 in 8.0 mi SSE 8.1 mph - N/A   Clear
7:03 AM 68.0 °F 68.0 °F 100% 30.04 in 9.0 mi South 6.9 mph - N/A   Mostly Cloudy
7:14 AM 68.0 °F 68.0 °F 100% 30.04 in 10.0 mi SSE 9.2 mph - N/A   Overcast
7:59 AM 69.8 °F 69.8 °F 100% 30.05 in 10.0 mi SSE 10.4 mph - N/A   Mostly Cloudy
8:26 AM 69.8 °F 69.8 °F 100% 30.04 in 10.0 mi SSE 9.2 mph - N/A   Overcast
8:59 AM 71.6 °F 71.6 °F 100% 30.06 in 10.0 mi SSE 12.7 mph - N/A   Overcast
9:47 AM 73.4 °F 73.4 °F 100% 30.05 in 10.0 mi SSE 10.4 mph 20.7 mph N/A   Overcast
9:59 AM 73.4 °F 73.4 °F 100% 30.05 in 10.0 mi SSE 11.5 mph - N/A   Overcast
10:10 AM 73.4 °F 73.4 °F 100% 30.04 in 10.0 mi SSE 13.8 mph - N/A   Overcast
10:48 AM 73.4 °F 73.4 °F 100% 30.03 in 10.0 mi South 13.8 mph - N/A   Overcast
10:58 AM 71.6 °F 71.6 °F 100% 30.04 in 10.0 mi SSE 13.8 mph - N/A   Overcast
11:20 AM 73.4 °F 73.4 °F 100% 30.01 in 10.0 mi South 12.7 mph - N/A   Overcast
11:37 AM 71.6 °F 71.6 °F 100% 30.01 in 7.0 mi South 13.8 mph - N/A Rain Light Rain
11:55 AM 71.6 °F 71.6 °F 100% 30.00 in 10.0 mi South 13.8 mph - N/A   Overcast
12:00 PM 71.6 °F 71.6 °F 100% 30.00 in 10.0 mi South 13.8 mph - N/A   Overcast
12:47 PM 69.8 °F 69.8 °F 100% 29.99 in 9.0 mi South 11.5 mph - N/A Rain Light Rain
12:49 PM 69.8 °F 69.8 °F 100% 29.98 in 10.0 mi South 10.4 mph - N/A Rain Light Rain
12:55 PM 69.8 °F 69.8 °F 100% 29.99 in 4.0 mi South 11.5 mph - N/A Rain Light Rain Showers
1:06 PM 69.8 °F 69.8 °F 100% 29.99 in 6.0 mi SSW 10.4 mph - N/A   Overcast
1:46 PM 69.8 °F 69.8 °F 100% 29.97 in 10.0 mi South 15.0 mph 21.9 mph N/A   Overcast
2:15 PM 71.6 °F 71.6 °F 100% 29.98 in 10.0 mi South 16.1 mph - N/A   Overcast
2:41 PM 71.6 °F 71.6 °F 100% 29.97 in 10.0 mi South 11.5 mph - N/A   Overcast
2:59 PM 69.8 °F 69.8 °F 100% 29.98 in 10.0 mi South 10.4 mph - N/A   Overcast
3:55 PM 69.8 °F 69.8 °F 100% 29.99 in 10.0 mi South 10.4 mph - N/A   Overcast
4:38 PM 69.8 °F 69.8 °F 100% 30.00 in 10.0 mi SSE 10.4 mph - N/A   Light Drizzle
4:47 PM 69.8 °F 69.8 °F 100% 30.00 in 10.0 mi SSE 10.4 mph - N/A   Overcast
4:55 PM 70.2 °F 70.2 °F 100% 30.00 in 10.0 mi SSE 9.2 mph - 0.00 in   Overcast
5:00 PM 69.8 °F 69.8 °F 100% 29.99 in 10.0 mi SSE 9.2 mph - N/A   Overcast
5:43 PM 69.8 °F 69.8 °F 100% 30.00 in 10.0 mi SSE 9.2 mph - N/A   Mostly Cloudy
5:55 PM 69.6 °F 69.6 °F 100% 30.00 in 10.0 mi SSE 10.4 mph - N/A   Mostly Cloudy
6:11 PM 69.8 °F 69.8 °F 100% 29.99 in 10.0 mi SSE 11.5 mph - N/A   Overcast
6:15 PM 69.8 °F 69.8 °F 100% 30.00 in 10.0 mi SSE 11.5 mph - N/A   Overcast
6:18 PM 69.8 °F 69.8 °F 100% 30.00 in 10.0 mi SSE 11.5 mph - N/A   Mostly Cloudy
6:20 PM 69.8 °F 69.8 °F 100% 30.00 in 10.0 mi SSE 12.7 mph - N/A   Overcast
6:48 PM 69.8 °F 69.8 °F 100% 29.99 in 10.0 mi SSE 10.4 mph - N/A   Mostly Cloudy
6:54 PM 69.8 °F 69.8 °F 100% 29.99 in 10.0 mi SSE 12.7 mph - N/A   Mostly Cloudy
6:55 PM 69.6 °F 69.6 °F 100% 29.99 in 10.0 mi SSE 11.5 mph - N/A   Mostly Cloudy
7:02 PM 69.8 °F 69.8 °F 100% 29.99 in 10.0 mi SSE 11.5 mph - N/A   Scattered Clouds
7:55 PM 69.6 °F 69.6 °F 100% 29.99 in 10.0 mi SSE 11.5 mph - N/A   Overcast
8:55 PM 69.6 °F 69.6 °F 100% 29.98 in 10.0 mi SSE 15.0 mph - N/A   Mostly Cloudy
9:15 PM 69.8 °F 69.8 °F 100% 29.98 in 10.0 mi SSE 15.0 mph - N/A   Mostly Cloudy
9:53 PM 69.8 °F 69.8 °F 100% 29.98 in 10.0 mi SSE 16.1 mph - N/A   Mostly Cloudy
9:54 PM 69.8 °F 69.8 °F 100% 29.98 in 10.0 mi South 16.1 mph - N/A   Mostly Cloudy
9:55 PM 69.8 °F 69.8 °F 100% 29.98 in 10.0 mi South 16.1 mph - N/A   Mostly Cloudy
9:57 PM 69.8 °F 69.8 °F 100% 29.99 in 10.0 mi South 17.3 mph - N/A Rain Light Rain
9:58 PM 69.8 °F 69.8 °F 100% 29.99 in 9.0 mi South 23.0 mph 38.0 mph N/A Rain Light Rain
10:01 PM 69.8 °F 69.8 °F 100% 29.99 in 7.0 mi South 24.2 mph 38.0 mph N/A Rain Light Rain
10:06 PM 69.8 °F 69.8 °F 100% 29.99 in 5.0 mi SSW 12.7 mph 38.0 mph N/A Rain Light Rain
10:17 PM 68.0 °F 68.0 °F 100% 29.99 in 7.0 mi SSW 11.5 mph - N/A Rain Light Rain
10:22 PM 68.0 °F 68.0 °F 100% 29.99 in 7.0 mi SSW 10.4 mph 17.3 mph N/A Rain Light Rain
10:28 PM 68.0 °F 68.0 °F 100% 29.99 in 7.0 mi SSW 9.2 mph 17.3 mph N/A Rain Light Rain
10:29 PM 68.0 °F 68.0 °F 100% 29.99 in 7.0 mi SSW 10.4 mph - N/A Rain Light Rain
10:43 PM 68.0 °F 68.0 °F 100% 29.98 in 10.0 mi South 6.9 mph - N/A   Light Drizzle
10:44 PM 68.0 °F 68.0 °F 100% 29.98 in 10.0 mi South 6.9 mph - N/A   Light Drizzle
10:55 PM 67.6 °F 67.6 °F 100% 29.98 in 9.0 mi South 9.2 mph - 0.03 in Rain Light Rain
11:12 PM 68.0 °F 68.0 °F 100% 29.96 in 10.0 mi SSE 12.7 mph - N/A   Overcast
11:50 PM 68.0 °F 68.0 °F 100% 29.96 in 10.0 mi SSE 10.4 mph - N/A   Overcast
11:55 PM 67.8 °F 67.8 °F 100% 29.96 in 10.0 mi SSE 8.1 mph - 0.01 in   Overcast